SR9NCI Weather Reports


time (UTC)temp
C
wind
direction
speed
KPH
gust
KPH
rain 1hr
cm
rain 24hr
cm
rain mn
cm
humidity
%
barometer
mb
20260902135915 26 281 11.3 17.7 0.00 0.00 0.00
20260902135513 26 277 8.0 11.3 0.00 0.00 0.00
20260902134710 26 231 9.7 14.5 0.00 0.00 0.00
20260902134309 25 248 14.5 20.9 0.00 0.00 0.00
20260902133906 26 274 9.7 17.7 0.00 0.00 0.00
20260902133458 26 264 11.3 16.1 0.00 0.00 0.00
20260902133056 26 256 6.4 12.9 0.00 0.00 0.00
20260902132655 25 259 11.3 16.1 0.00 0.00 0.00
20260902131851 25 262 4.8 8.0 0.00 0.00 0.00
20260902131450 25 307 8.0 12.9 0.00 0.00 0.00
20260902131048 26 284 8.0 16.1 0.00 0.00 0.00
20260902130646 26 354 6.4 12.9 0.00 0.00 0.00
20260902130245 26 269 8.0 12.9 0.00 0.00 0.00
20260902125843 25 316 8.0 12.9 0.00 0.00 0.00
20260902125435 25 342 9.7 16.1 0.00 0.00 0.00
20260902125033 25 299 8.0 14.5 0.00 0.00 0.00
20260902124631 26 296 8.0 14.5 0.00 0.00 0.00
20260902124230 26 278 4.8 8.0 0.00 0.00 0.00
20260902123828 25 317 4.8 8.0 0.00 0.00 0.00
20260902123427 26 275 4.8 9.7 0.00 0.00 0.00
20260902123025 25 300 4.8 8.0 0.00 0.00 0.00
20260902122624 25 315 3.2 11.3 0.00 0.00 0.00
20260902122223 24 313 6.4 11.3 0.00 0.00 0.00
20260902121821 25 260 6.4 9.7 0.00 0.00 0.00
20260902121412 24 272 11.3 16.1 0.00 0.00 0.00
20260902121010 24 270 9.7 16.1 0.00 0.00 0.00
20260902120609 24 270 8.0 16.1 0.00 0.00 0.00
20260902120208 24 271 12.9 17.7 0.00 0.00 0.00
20260902115805 25 264 12.9 19.3 0.00 0.00 0.00
20260902115404 25 244 12.9 19.3 0.00 0.00 0.00
20260902115002 26 223 9.7 17.7 0.00 0.00 0.00
20260902114601 25 219 11.3 19.3 0.00 0.00 0.00
20260902114200 25 266 11.3 19.3 0.00 0.00 0.00
20260902113757 25 229 11.3 19.3 0.00 0.00 0.00
20260902113349 25 273 11.3 17.7 0.00 0.00 0.00
20260902112947 24 255 11.3 16.1 0.00 0.00 0.00
20260902112546 24 270 6.4 12.9 0.00 0.00 0.00
20260902112144 24 250 11.3 17.7 0.00 0.00 0.00
20260902111742 25 240 11.3 16.1 0.00 0.00 0.00
20260902111341 25 276 8.0 14.5 0.00 0.00 0.00
20260902110940 25 279 12.9 19.3 0.00 0.00 0.00
20260902110537 25 249 19.3 25.7 0.00 0.00 0.00
20260902110136 25 280 12.9 19.3 0.00 0.00 0.00
20260902105735 24 269 12.9 17.7 0.00 0.00 0.00
20260902105327 25 266 14.5 20.9 0.00 0.00 0.00
20260902104924 25 238 8.0 11.3 0.00 0.00 0.00
20260902104523 25 214 12.9 19.3 0.00 0.00 0.00
20260902104122 25 220 9.7 16.1 0.00 0.00 0.00
20260902103720 25 262 9.7 16.1 0.00 0.00 0.00
20260902103319 25 264 8.0 16.1 0.00 0.00 0.00
20260902102916 24 243 6.4 11.3 0.00 0.00 0.00
20260902102515 23 268 6.4 9.7 0.00 0.00 0.00
20260902102114 23 255 9.7 16.1 0.00 0.00 0.00
20260902101712 23 266 11.3 16.1 0.00 0.00 0.00
20260902101303 23 277 12.9 20.9 0.00 0.00 0.00
20260902100901 23 282 11.3 19.3 0.00 0.00 0.00
20260902100500 23 275 9.7 12.9 0.00 0.00 0.00
20260902100059 23 244 9.7 16.1 0.00 0.00 0.00
20260902095656 23 270 12.9 16.1 0.00 0.00 0.00
20260902095255 23 257 9.7 16.1 0.00 0.00 0.00
20260902094853 23 241 9.7 14.5 0.00 0.00 0.00
20260902094452 23 236 9.7 14.5 0.00 0.00 0.00
20260902094050 23 240 9.7 16.1 0.00 0.00 0.00
20260902093648 23 202 12.9 17.7 0.00 0.00 0.00
20260902093240 23 225 12.9 22.5 0.00 0.00 0.00
20260902092839 23 203 9.7 17.7 0.00 0.00 0.00
20260902092438 23 219 11.3 19.3 0.00 0.00 0.00
20260902092035 23 222 8.0 14.5 0.00 0.00 0.00
20260902091634 23 269 8.0 14.5 0.00 0.00 0.00
20260902091233 23 247 9.7 16.1 0.00 0.00 0.00
20260902090831 23 262 8.0 14.5 0.00 0.00 0.00
20260902090428 23 254 12.9 17.7 0.00 0.00 0.00
20260902090027 23 232 8.0 11.3 0.00 0.00 0.00
20260902085625 23 229 11.3 16.1 0.00 0.00 0.00
20260902085216 23 218 9.7 16.1 0.00 0.00 0.00
20260902084813 23 196 9.7 16.1 0.00 0.00 0.00
20260902084412 23 178 9.7 14.5 0.00 0.00 0.00
20260902084011 23 172 4.8 6.4 0.00 0.00 0.00
20260902083610 23 180 4.8 11.3 0.00 0.00 0.00
20260902083208 23 180 6.4 9.7 0.00 0.00 0.00
20260902082806 23 157 3.2 12.9 0.00 0.00 0.00
20260902082405 23 157 3.2 6.4 0.00 0.00 0.00
20260902082003 23 157 3.2 6.4 0.00 0.00 0.00
20260902081601 23 157 3.2 4.8 0.00 0.00 0.00
20260902081152 23 157 4.8 8.0 0.00 0.00 0.00
20260902080750 23 157 4.8 8.0 0.00 0.00 0.00
20260902080349 22 157 3.2 8.0 0.00 0.00 0.00
20260902075948 22 157 4.8 8.0 0.00 0.00 0.00
20260902075628 22 157 4.8 9.7 0.00 0.00 0.00
20260902075545 22 157 4.8 9.7 0.00 0.00 0.00
20260902075144 22 144 8.0 12.9 0.00 0.00 0.00
20260902074742 21 135 6.4 9.7 0.00 0.00 0.00
20260902074342 21 142 8.0 12.9 0.00 0.00 0.00
20260902073939 21 146 6.4 9.7 0.00 0.00 0.00
20260902073538 21 150 9.7 14.5 0.00 0.00 0.00
20260902073130 21 158 11.3 16.1 0.00 0.00 0.00
20260902072728 21 156 8.0 12.9 0.00 0.00 0.00
20260902072326 21 162 8.0 12.9 0.00 0.00 0.00
20260902071925 21 156 11.3 16.1 0.00 0.00 0.00
20260902071523 20 152 11.3 14.5 0.00 0.00 0.00
20260902071122 21 152 9.7 14.5 0.00 0.00 0.00
20260902070720 20 152 9.7 16.1 0.00 0.00 0.00
20260902070318 21 141 8.0 14.5 0.00 0.00 0.00
20260902065917 20 144 11.3 14.5 0.00 0.00 0.00
20260902065515 21 145 9.7 14.5 0.00 0.00 0.00
20260902065107 21 143 8.0 14.5 0.00 0.00 0.00
20260902064704 21 156 9.7 16.1 0.00 0.00 0.00
20260902064303 21 157 6.4 9.7 0.00 0.00 0.00
20260902063902 21 157 8.0 12.9 0.00 0.00 0.00
20260902063500 21 157 4.8 6.4 0.00 0.00 0.00
20260902063058 20 157 4.8 8.0 0.00 0.00 0.00
20260902062656 20 143 6.4 11.3 0.00 0.00 0.00
20260902062255 19 145 6.4 16.1 0.00 0.00 0.00
20260902061853 19 152 8.0 11.3 0.00 0.00 0.00
20260902061450 18 145 4.8 11.3 0.00 0.00 0.00
20260902061042 18 148 6.4 11.3 0.00 0.00 0.00
20260902060640 18 146 3.2 8.0 0.00 0.00 0.00
20260902060239 19 149 6.4 9.7 0.00 0.00 0.00
20260902055838 18 139 6.4 12.9 0.00 0.00 0.00
20260902055435 18 138 6.4 11.3 0.00 0.00 0.00
20260902055035 18 143 4.8 8.0 0.00 0.00 0.00
20260902054633 18 157 4.8 9.7 0.00 0.00 0.00
20260902054232 18 135 3.2 4.8 0.00 0.00 0.00
20260902053830 18 147 4.8 8.0 0.00 0.00 0.00
20260902053428 18 146 8.0 14.5 0.00 0.00 0.00
20260902053020 17 151 8.0 9.7 0.00 0.00 0.00
20260902052618 18 142 9.7 16.1 0.00 0.00 0.00
20260902052216 17 139 9.7 16.1 0.00 0.00 0.00
20260902051815 17 141 8.0 12.9 0.00 0.00 0.00
20260902051413 17 146 6.4 12.9 0.00 0.00 0.00
20260902051012 17 137 9.7 16.1 0.00 0.00 0.00
20260902050609 18 139 8.0 14.5 0.00 0.00 0.00
20260902050208 17 144 9.7 14.5 0.00 0.00 0.00
20260902045807 17 136 8.0 12.9 0.00 0.00 0.00
20260902045405 17 124 6.4 9.7 0.00 0.00 0.00
20260902044957 17 144 8.0 12.9 0.00 0.00 0.00
20260902044554 17 144 8.0 11.3 0.00 0.00 0.00
20260902044153 17 154 6.4 12.9 0.00 0.00 0.00
20260902043752 17 143 8.0 16.1 0.00 0.00 0.00
20260902043350 17 151 12.9 22.5 0.00 0.00 0.00
20260902042947 16 156 9.7 14.5 0.00 0.00 0.00
20260902042545 16 153 9.7 16.1 0.00 0.00 0.00
20260902042144 17 150 12.9 16.1 0.00 0.00 0.00
20260902041742 16 148 11.3 14.5 0.00 0.00 0.00
20260902041339 16 148 8.0 12.9 0.00 0.00 0.00
20260902040932 16 153 11.3 16.1 0.00 0.00 0.00
20260902040530 16 151 9.7 16.1 0.00 0.00 0.00
20260902040129 15 156 9.7 14.5 0.00 0.00 0.00
20260902035325 16 153 9.7 12.9 0.00 0.00 0.00
20260902034924 16 153 11.3 14.5 0.00 0.00 0.00
20260902034521 17 151 9.7 12.9 0.00 0.00 0.00
20260902034120 16 152 9.7 14.5 0.00 0.00 0.00
20260902033718 17 133 8.0 12.9 0.00 0.00 0.00
20260902033316 17 155 9.7 14.5 0.00 0.00 0.00
20260902032908 17 150 9.7 14.5 0.00 0.00 0.00
20260902032506 16 148 8.0 14.5 0.00 0.00 0.00
20260902032104 16 153 8.0 11.3 0.00 0.00 0.00
20260902031703 16 151 12.9 16.1 0.00 0.00 0.00
20260902031301 17 158 11.3 14.5 0.00 0.00 0.00
20260902030901 17 151 9.7 12.9 0.00 0.00 0.00
20260902030457 17 147 8.0 12.9 0.00 0.00 0.00
20260902030056 17 144 9.7 16.1 0.00 0.00 0.00
20260902025655 16 132 9.7 14.5 0.00 0.00 0.00
20260902025254 16 142 9.7 14.5 0.00 0.00 0.00
20260902024844 17 148 11.3 14.5 0.00 0.00 0.00
20260902024443 16 152 9.7 12.9 0.00 0.00 0.00
20260902024042 16 151 11.3 14.5 0.00 0.00 0.00
20260902023641 16 152 9.7 16.1 0.00 0.00 0.00
20260902023239 16 151 9.7 16.1 0.00 0.00 0.00
20260902022837 16 145 11.3 16.1 0.00 0.00 0.00
20260902022435 16 155 6.4 12.9 0.00 0.00 0.00
20260902022034 16 146 8.0 12.9 0.00 0.00 0.00
20260902021633 16 146 4.8 9.7 0.00 0.00 0.00
20260902021230 16 157 6.4 9.7 0.00 0.00 0.00
20260902020822 16 159 8.0 12.9 0.00 0.00 0.00
20260902020420 16 153 8.0 11.3 0.00 0.00 0.00
20260902020019 16 152 9.7 12.9 0.00 0.00 0.00
20260902015617 16 153 6.4 12.9 0.00 0.00 0.00
20260902015215 16 150 9.7 12.9 0.00 0.00 0.00
20260902014814 16 151 9.7 12.9 0.00 0.00 0.00
20260902014412 16 157 11.3 16.1 0.00 0.00 0.00
20260902014010 16 156 8.0 12.9 0.00 0.00 0.00
20260902013609 16 158 9.7 14.5 0.00 0.00 0.00
20260902013207 17 145 9.7 14.5 0.00 0.00 0.00
20260902012759 17 148 9.7 14.5 0.00 0.00 0.00
20260902012358 16 140 8.0 14.5 0.00 0.00 0.00
20260902011955 16 153 6.4 12.9 0.00 0.00 0.00
20260902011555 16 150 8.0 11.3 0.00 0.00 0.00
20260902011153 16 154 8.0 11.3 0.00 0.00 0.00
20260902010752 17 158 8.0 12.9 0.00 0.00 0.00
20260902010349 17 160 11.3 14.5 0.00 0.00 0.00
20260902005948 17 158 8.0 12.9 0.00 0.00 0.00
20260902005547 16 153 9.7 12.9 0.00 0.00 0.00
20260902005145 17 152 4.8 9.7 0.00 0.00 0.00
20260902004736 17 144 8.0 12.9 0.00 0.00 0.00
20260902004334 17 157 9.7 14.5 0.00 0.00 0.00
20260902003933 16 155 6.4 11.3 0.00 0.00 0.00
20260902003532 17 156 11.3 14.5 0.00 0.00 0.00
20260902003129 16 156 8.0 14.5 0.00 0.00 0.00
20260902002728 16 151 9.7 14.5 0.00 0.00 0.00
20260902002326 16 153 8.0 11.3 0.00 0.00 0.00
20260902001925 16 161 9.7 12.9 0.00 0.00 0.00
20260902001524 16 143 8.0 12.9 0.00 0.00 0.00
20260902001121 17 150 6.4 9.7 0.00 0.00 0.00
20260902000713 16 143 6.4 9.7 0.00 0.00 0.00
20260902000312 17 150 6.4 9.7 0.00 0.00 0.00
20260901235508 17 158 9.7 12.9 0.00 0.00 0.00
20260901235106 16 159 6.4 14.5 0.00 0.00 0.00
20260901234705 17 157 6.4 12.9 0.00 0.00 0.00
20260901234303 17 153 9.7 16.1 0.00 0.00 0.00
20260901233901 17 157 6.4 11.3 0.00 0.00 0.00
20260901233500 16 162 6.4 9.7 0.00 0.00 0.00
20260901233058 16 162 8.0 12.9 0.00 0.00 0.00
20260901232651 17 162 6.4 9.7 0.00 0.00 0.00
20260901232247 16 161 8.0 11.3 0.00 0.00 0.00
20260901231847 16 156 4.8 8.0 0.00 0.00 0.00
20260901231446 16 158 6.4 11.3 0.00 0.00 0.00
20260901231044 16 157 6.4 8.0 0.00 0.00 0.00
20260901230643 17 154 6.4 9.7 0.00 0.00 0.00
20260901230240 17 157 4.8 6.4 0.00 0.00 0.00
20260901225839 17 157 4.8 9.7 0.00 0.00 0.00
20260901225438 17 145 4.8 8.0 0.00 0.00 0.00
20260901225036 17 145 4.8 6.4 0.00 0.00 0.00
20260901224627 17 138 6.4 9.7 0.00 0.00 0.00
20260901224225 17 147 9.7 11.3 0.00 0.00 0.00
20260901223824 17 153 6.4 12.9 0.00 0.00 0.00
20260901223423 17 157 6.4 9.7 0.00 0.00 0.00
20260901223020 17 157 8.0 11.3 0.00 0.00 0.00
20260901222217 17 157 4.8 8.0 0.00 0.00 0.00
20260901221816 17 144 6.4 9.7 0.00 0.00 0.00
20260901221414 18 133 6.4 11.3 0.00 0.00 0.00
20260901221014 17 124 4.8 9.7 0.00 0.00 0.00
20260901220604 17 133 4.8 8.0 0.00 0.00 0.00
20260901220203 17 135 4.8 8.0 0.00 0.00 0.00
20260901215802 17 138 6.4 8.0 0.00 0.00 0.00
20260901215359 17 141 4.8 8.0 0.00 0.00 0.00
20260901214958 17 144 6.4 9.7 0.00 0.00 0.00
20260901214557 17 140 4.8 6.4 0.00 0.00 0.00
20260901214154 17 135 4.8 6.4 0.00 0.00 0.00
20260901213752 17 135 4.8 8.0 0.00 0.00 0.00
20260901213351 17 157 4.8 8.0 0.00 0.00 0.00
20260901212949 17 157 4.8 8.0 0.00 0.00 0.00
20260901212541 17 157 4.8 8.0 0.00 0.00 0.00
20260901212138 17 157 4.8 8.0 0.00 0.00 0.00
20260901211737 17 159 6.4 8.0 0.00 0.00 0.00
20260901211336 17 143 4.8 9.7 0.00 0.00 0.00
20260901210935 17 147 4.8 6.4 0.00 0.00 0.00
20260901210532 17 157 4.8 8.0 0.00 0.00 0.00
20260901210131 18 140 6.4 9.7 0.00 0.00 0.00
20260901205730 18 147 4.8 8.0 0.00 0.00 0.00
20260901205329 18 147 6.4 11.3 0.00 0.00 0.00
20260901204927 18 157 6.4 9.7 0.00 0.00 0.00
20260901204518 17 157 4.8 8.0 0.00 0.00 0.00
20260901204115 17 143 3.2 6.4 0.00 0.00 0.00
20260901203714 17 153 4.8 9.7 0.00 0.00 0.00
20260901203313 17 139 3.2 6.4 0.00 0.00 0.00
20260901202910 17 157 4.8 9.7 0.00 0.00 0.00
20260901202509 17 135 3.2 4.8 0.00 0.00 0.00
20260901202106 18 157 3.2 4.8 0.00 0.00 0.00
20260901201705 18 143 4.8 8.0 0.00 0.00 0.00
20260901201303 18 153 4.8 8.0 0.00 0.00 0.00
20260901200901 18 136 4.8 6.4 0.00 0.00 0.00
20260901200453 17 135 3.2 4.8 0.00 0.00 0.00
20260901200051 18 138 3.2 6.4 0.00 0.00 0.00
20260901195649 17 135 3.2 4.8 0.00 0.00 0.00
20260901195248 17 197 1.6 3.2 0.00 0.00 0.00
20260901194846 17 202 1.6 3.2 0.00 0.00 0.00
20260901194445 17 202 1.6 3.2 0.00 0.00 0.00
20260901194043 17 202 1.6 3.2 0.00 0.00 0.00
20260901193641 17 213 3.2 6.4 0.00 0.00 0.00
20260901193240 17 225 3.2 3.2 0.00 0.00 0.00
20260901192839 17 225 0.0 1.6 0.00 0.00 0.00
20260901192431 17 225 1.6 3.2 0.00 0.00 0.00
20260901192027 17 225 1.6 3.2 0.00 0.00 0.00
20260901191627 18 237 3.2 6.4 0.00 0.00 0.00
20260901191226 18 248 4.8 4.8 0.00 0.00 0.00
20260901190824 17 292 3.2 3.2 0.00 0.00 0.00
20260901190422 17 292 0.0 1.6 0.00 0.00 0.00
20260901190020 18 292 0.0 3.2 0.00 0.00 0.00
20260901185619 18 292 0.0 1.6 0.00 0.00 0.00
20260901185218 18 292 1.6 3.2 0.00 0.00 0.00
20260901184815 18 292 1.6 3.2 0.00 0.00 0.00
20260901184407 18 292 1.6 3.2 0.00 0.00 0.00
20260901184005 18 292 1.6 3.2 0.00 0.00 0.00
20260901183604 18 298 1.6 3.2 0.00 0.00 0.00
20260901183203 18 315 0.0 1.6 0.00 0.00 0.00
20260901182800 18 315 0.0 0.0 0.00 0.00 0.00
20260901182359 18 315 0.0 0.0 0.00 0.00 0.00
20260901181957 19 315 0.0 0.0 0.00 0.00 0.00
20260901181556 20 315 0.0 0.0 0.00 0.00 0.00
20260901181154 20 315 0.0 0.0 0.00 0.00 0.00
20260901180752 20 313 0.0 3.2 0.00 0.00 0.00
20260901180344 20 315 0.0 0.0 0.00 0.00 0.00
20260901175942 19 315 0.0 0.0 0.00 0.00 0.00
20260901175540 19 315 0.0 0.0 0.00 0.00 0.00
20260901175139 20 315 0.0 1.6 0.00 0.00 0.00
20260901174737 20 315 1.6 3.2 0.00 0.00 0.00
20260901174336 20 315 1.6 3.2 0.00 0.00 0.00
20260901173532 20 315 1.6 3.2 0.00 0.00 0.00
20260901173414 20 315 0.0 3.2 0.00 0.00 0.00
20260901173131 20 315 0.0 3.2 0.00 0.00 0.00
20260901172729 21 315 1.6 3.2 0.00 0.00 0.00
20260901171918 21 315 0.0 3.2 0.00 0.00 0.00
20260901171517 21 293 3.2 6.4 0.00 0.00 0.00
20260901171116 21 292 1.6 3.2 0.00 0.00 0.00
20260901170714 21 292 1.6 4.8 0.00 0.00 0.00
20260901170312 21 295 3.2 4.8 0.00 0.00 0.00
20260901165911 21 305 4.8 8.0 0.00 0.00 0.00
20260901165510 22 292 4.8 9.7 0.00 0.00 0.00
20260901165109 22 292 4.8 6.4 0.00 0.00 0.00
20260901164706 23 292 6.4 8.0 0.00 0.00 0.00
20260901164258 23 307 6.4 9.7 0.00 0.00 0.00
20260901163856 25 315 3.2 6.4 0.00 0.00 0.00
20260901163455 24 298 4.8 9.7 0.00 0.00 0.00
20260901163053 25 295 8.0 11.3 0.00 0.00 0.00
20260901162651 25 301 6.4 11.3 0.00 0.00 0.00
20260901162250 25 315 3.2 6.4 0.00 0.00 0.00
20260901161848 23 286 6.4 8.0 0.00 0.00 0.00
20260901161447 23 273 8.0 12.9 0.00 0.00 0.00
20260901161045 23 292 8.0 12.9 0.00 0.00 0.00
20260901160643 23 292 6.4 11.3 0.00 0.00 0.00
20260901160235 22 301 4.8 9.7 0.00 0.00 0.00
20260901155833 22 287 6.4 9.7 0.00 0.00 0.00
20260901155431 22 292 4.8 6.4 0.00 0.00 0.00
20260901155030 22 277 3.2 4.8 0.00 0.00 0.00
20260901154628 22 289 4.8 9.7 0.00 0.00 0.00
20260901154228 22 290 4.8 8.0 0.00 0.00 0.00
20260901153824 22 304 3.2 8.0 0.00 0.00 0.00
20260901153423 22 298 8.0 12.9 0.00 0.00 0.00
20260901153022 22 297 6.4 9.7 0.00 0.00 0.00
20260901152621 22 278 6.4 9.7 0.00 0.00 0.00
20260901152211 22 302 4.8 8.0 0.00 0.00 0.00
20260901151810 22 296 8.0 14.5 0.00 0.00 0.00
20260901151409 22 297 8.0 12.9 0.00 0.00 0.00
20260901151008 22 301 8.0 14.5 0.00 0.00 0.00
20260901150606 22 291 8.0 12.9 0.00 0.00 0.00
20260901150204 22 314 4.8 8.0 0.00 0.00 0.00
20260901145802 22 308 6.4 9.7 0.00 0.00 0.00
20260901145401 22 295 8.0 14.5 0.00 0.00 0.00
20260901145000 22 298 4.8 11.3 0.00 0.00 0.00
20260901144557 22 296 4.8 6.4 0.00 0.00 0.00
20260901144149 22 313 8.0 12.9 0.00 0.00 0.00
20260901143747 22 289 4.8 8.0 0.00 0.00 0.00
20260901143346 22 279 3.2 6.4 0.00 0.00 0.00
20260901142944 22 289 8.0 14.5 0.00 0.00 0.00
20260901142542 22 309 6.4 9.7 0.00 0.00 0.00
20260901142141 22 302 8.0 11.3 0.00 0.00 0.00
20260901141739 22 298 6.4 9.7 0.00 0.00 0.00
20260901141337 22 292 6.4 12.9 0.00 0.00 0.00
20260901140936 22 303 4.8 8.0 0.00 0.00 0.00
20260901140534 22 294 8.0 14.5 0.00 0.00 0.00
20260901140126 22 298 6.4 11.3 0.00 0.00 0.00